Probability
0 0 0 0 0 0 0 0 0 0 0 0 0 0 0 0 0 0 0 0 0 3 3 6 6 6 6 6 6 6 6 3 3 3 3 0 0 0 0 0 0 0 0 0
0 0 0 0 0 0 0 0 0 0 0 0 0 0 0 0 0 0 0 0 0 3 3 3 3 3 6 6 6 6 3 3 3 3 0 0 0 0 0 0 0 0 0 0
0 0 0 0 0 0 0 0 0 0 0 0 0 0 0 0 0 0 0 0 0 0 0 0 0 0 3 6 6 6 6 3 3 3 0 0 0 0 0 0 0 0 0 0
0 0 0 0 0 0 0 0 0 0 0 0 0 0 0 0 0 0 0 0 0 0 0 0 0 0 0 6 6 3 6 3 3 0 0 0 0 0 0 0 0 0 0 0
0 0 0 0 0 0 0 0 0 0 0 0 0 0 0 0 0 0 0 0 0 0 0 0 0 0 0 6 6 3 6 3 0 0 0 0 0 0 0 0 0 0 0 0
0 0 0 0 0 0 0 0 0 0 0 0 0 0 0 0 0 0 0 0 0 0 0 0 0 0 0 0 3 3 0 3 0 0 0 0 0 0 0 0 0 0 0 0
0 0 0 0 0 0 0 0 0 0 0 0 0 0 0 0 0 0 0 0 0 0 0 0 0 0 0 0 0 3 3 3 0 0 0 0 0 0 0 0 0 0 0 0
0 0 0 0 0 0 0 0 0 0 0 0 0 0 0 0 0 0 0 0 0 0 0 0 0 0 0 0 0 0 0 0 0 0 0 0 0 0 0 0 0 0 0 0
0 0 0 0 0 0 0 0 0 0 0 0 0 0 0 0 0 0 0 0 0 0 0 0 0 0 0 0 0 0 0 0 0 0 0 0 0 0 0 0 0 0 0 0
0 0 0 0 0 0 0 0 0 0 0 0 0 0 0 0 0 0 0 0 0 0 0 0 0 0 0 0 0 0 0 0 0 0 0 0 0 0 0 0 0 0 0 0
0 0 0 0 0 0 0 0 0 0 0 0 0 0 0 0 0 0 0 0 0 0 0 0 0 0 0 0 0 0 0 0 0 0 0 0 0 0 0 0 0 0 0 0
0 0 0 0 0 0 0 0 0 0 0 0 0 0 0 0 0 0 0 0 0 0 0 0 0 0 0 0 0 0 0 0 0 0 0 0 0 0 0 0 0 0 0 0
0 0 0 0 0 0 0 0 0 0 0 0 0 0 0 0 0 0 0 0 0 0 0 0 0 0 0 0 0 0 0 0 0 0 0 0 0 0 0 0 0 0 0 0
0 0 0 0 0 0 0 0 0 0 0 0 0 0 0 0 0 0 0 0 0 0 0 0 0 0 0 0 0 0 0 0 0 0 0 0 0 0 0 0 0 0 0 0
0 0 0 0 0 0 0 0 0 0 0 0 0 0 0 0 0 0 0 0 0 0 0 0 0 0 0 0 0 0 0 0 0 0 0 0 0 0 0 0 0 0 0 0
0 0 0 0 0 0 0 0 0 0 0 0 0 0 0 0 0 0 0 0 0 0 0 0 0 0 0 0 0 0 0 0 0 0 0 0 0 0 0 0 0 0 0 0
0 0 0 0 0 0 0 0 0 0 0 0 0 0 0 0 0 0 0 0 0 0 0 0 0 0 0 0 0 0 0 0 0 0 0 0 0 0 0 0 0 0 0 0
0 0 0 0 0 0 0 0 0 0 0 0 0 0 0 0 0 0 0 0 0 0 0 0 0 0 0 0 0 0 0 0 0 0 0 0 0 0 0 0 0 0 0 0
0 0 0 0 0 0 0 0 0 0 0 0 0 0 0 0 0 0 0 0 0 0 0 0 0 0 0 0 0 0 0 0 0 0 0 0 0 0 0 0 0 0 0 0
0 0 0 0 0 0 0 0 0 0 0 0 0 0 0 0 0 0 0 0 0 0 0 0 0 0 0 0 0 0 0 0 0 0 0 0 0 0 0 0 0 0 0 0
0 0 0 0 0 0 0 0 0 0 0 0 0 0 0 0 0 0 0 0 0 0 0 0 0 0 0 0 0 0 0 0 0 0 0 0 0 0 0 0 0 0 0 0
0 0 0 0 0 0 0 0 0 0 0 0 0 0 0 0 0 0 0 0 0 0 0 0 0 0 0 0 0 0 0 0 0 0 0 0 0 0 0 0 0 0 0 0
0 0 0 0 0 0 0 0 0 0 0 0 0 0 0 0 0 0 0 0 0 0 0 0 0 0 0 0 0 0 0 0 0 0 0 0 0 0 0 0 0 0 0 0
0 0 0 0 0 0 0 0 0 0 0 0 0 0 0 0 0 0 0 0 0 0 0 0 0 0 0 0 0 0 0 0 0 0 0 0 0 0 0 0 0 0 0 0
0 0 0 0 0 0 0 0 0 0 0 0 0 0 0 0 0 0 0 0 0 0 0 0 0 0 0 0 0 0 0 0 0 0 0 0 0 0 0 0 0 0 0 0
0 0 0 0 0 0 0 0 0 0 0 0 0 0 0 0 0 0 0 0 0 0 0 0 0 0 0 0 0 0 0 0 0 0 0 0 0 0 0 0 0 0 0 0
Height
5611 5618 5625 5635 5643 5652 5658 5664 5671 5677 5682 5689 5695 5701 5707 5712 5718 5723 5728 5733 5739 5744 5749 5753 5758 5762 5766 5770 5774 5778 5781 5784 5787 5790 5793 5795 5798 5800 5802 5804 5805 5807 5808 5809
5603 5610 5620 5627 5634 5641 5647 5654 5661 5667 5673 5679 5685 5691 5697 5703 5709 5714 5719 5724 5730 5734 5739 5744 5749 5753 5758 5762 5766 5769 5773 5776 5779 5782 5785 5787 5790 5792 5794 5796 5798 5799 5800 5801
5595 5605 5612 5618 5625 5632 5638 5646 5653 5659 5664 5669 5675 5681 5687 5693 5699 5704 5709 5715 5720 5725 5730 5735 5740 5745 5749 5753 5757 5760 5764 5768 5771 5773 5776 5779 5782 5784 5786 5788 5790 5791 5792 5793
5588 5597 5603 5609 5617 5624 5631 5638 5644 5650 5655 5660 5666 5671 5679 5684 5689 5695 5701 5706 5711 5717 5722 5726 5731 5736 5740 5744 5748 5751 5755 5759 5762 5765 5768 5771 5774 5776 5778 5780 5782 5783 5785 5786
5582 5590 5596 5603 5611 5617 5625 5631 5636 5642 5647 5651 5656 5661 5669 5673 5679 5686 5693 5698 5703 5708 5713 5718 5722 5727 5731 5735 5739 5742 5746 5750 5753 5756 5759 5762 5765 5767 5769 5772 5773 5775 5776 5777
5578 5584 5589 5596 5604 5610 5616 5623 5628 5633 5637 5641 5648 5653 5659 5665 5672 5678 5684 5689 5694 5699 5703 5708 5713 5717 5721 5726 5729 5733 5737 5740 5744 5747 5750 5753 5756 5758 5761 5763 5765 5766 5768 5769
5572 5578 5583 5590 5596 5602 5608 5615 5620 5623 5626 5633 5641 5644 5650 5657 5663 5669 5674 5680 5685 5689 5694 5698 5703 5708 5712 5716 5720 5724 5728 5731 5734 5738 5741 5744 5747 5749 5752 5754 5756 5757 5759 5760
5567 5573 5578 5583 5589 5596 5602 5608 5613 5617 5620 5626 5631 5635 5642 5648 5654 5660 5665 5670 5675 5680 5684 5689 5693 5698 5703 5707 5710 5714 5718 5722 5725 5728 5732 5735 5737 5740 5742 5744 5747 5748 5750 5751
5562 5568 5574 5579 5584 5590 5595 5601 5607 5611 5614 5618 5622 5628 5634 5640 5646 5651 5656 5661 5665 5670 5675 5679 5684 5689 5693 5697 5701 5705 5709 5712 5716 5719 5722 5725 5728 5730 5733 5735 5737 5739 5740 5741
5558 5563 5568 5573 5578 5583 5589 5595 5599 5602 5606 5610 5615 5621 5626 5632 5638 5642 5647 5652 5656 5660 5665 5670 5674 5679 5683 5687 5691 5695 5699 5702 5705 5709 5712 5715 5718 5720 5723 5725 5727 5729 5730 5731
5554 5558 5563 5567 5572 5577 5583 5587 5591 5596 5600 5604 5608 5615 5619 5624 5629 5633 5638 5642 5646 5651 5656 5660 5665 5670 5674 5678 5681 5685 5689 5692 5695 5699 5702 5705 5708 5710 5712 5715 5717 5718 5720 5721
5549 5553 5557 5562 5567 5572 5576 5581 5586 5590 5594 5598 5601 5609 5611 5616 5620 5624 5628 5633 5638 5642 5646 5651 5655 5660 5664 5668 5672 5675 5678 5682 5685 5688 5692 5695 5697 5700 5702 5704 5706 5708 5709 5710
5545 5548 5551 5555 5561 5565 5569 5574 5579 5583 5587 5590 5594 5601 5604 5607 5611 5615 5619 5624 5628 5632 5637 5641 5645 5650 5654 5658 5661 5665 5668 5672 5675 5678 5681 5684 5686 5689 5691 5693 5695 5697 5698 5699
5542 5544 5548 5552 5555 5560 5564 5568 5572 5575 5578 5582 5587 5591 5596 5599 5602 5606 5610 5614 5619 5623 5627 5632 5636 5640 5644 5647 5651 5655 5658 5661 5664 5667 5670 5673 5676 5678 5680 5682 5684 5686 5687 5688
5537 5540 5543 5547 5550 5554 5557 5562 5565 5568 5572 5575 5579 5583 5587 5590 5593 5597 5601 5605 5609 5613 5618 5622 5626 5630 5633 5637 5640 5644 5647 5651 5654 5657 5660 5662 5664 5667 5669 5671 5673 5674 5675 5677
5534 5536 5539 5542 5545 5547 5550 5554 5557 5561 5564 5567 5571 5575 5579 5581 5584 5588 5591 5595 5599 5604 5608 5611 5615 5619 5623 5626 5630 5633 5636 5639 5642 5645 5648 5651 5653 5655 5658 5660 5661 5663 5664 5665
5530 5533 5534 5537 5540 5541 5544 5548 5551 5554 5557 5560 5563 5568 5570 5572 5575 5579 5582 5586 5589 5593 5597 5601 5605 5609 5612 5616 5619 5622 5625 5628 5631 5634 5637 5639 5641 5644 5646 5648 5649 5651 5652 5653
5527 5528 5530 5532 5535 5536 5541 5541 5544 5546 5550 5552 5555 5558 5561 5564 5567 5570 5573 5576 5580 5583 5587 5591 5594 5598 5601 5604 5608 5611 5614 5617 5620 5622 5625 5627 5629 5631 5633 5635 5637 5638 5639 5640
5523 5525 5526 5527 5528 5530 5533 5535 5537 5539 5542 5545 5547 5550 5553 5555 5558 5562 5565 5567 5570 5573 5577 5580 5584 5587 5590 5594 5596 5599 5602 5605 5608 5611 5613 5615 5617 5619 5621 5623 5624 5626 5626 5627
5519 5520 5522 5522 5523 5525 5529 5530 5531 5533 5535 5538 5540 5543 5545 5548 5551 5555 5556 5558 5561 5564 5567 5570 5573 5576 5580 5582 5585 5588 5591 5593 5596 5598 5600 5603 5605 5607 5609 5610 5612 5613 5614 5615
5515 5516 5517 5517 5518 5520 5522 5523 5525 5528 5530 5531 5533 5535 5537 5540 5543 5545 5547 5550 5552 5555 5558 5560 5563 5566 5569 5571 5574 5577 5579 5582 5584 5586 5588 5590 5592 5594 5596 5598 5599 5601 5602 5603
5510 5511 5512 5512 5513 5517 5516 5517 5519 5521 5522 5523 5525 5527 5529 5531 5533 5536 5538 5541 5543 5546 5548 5550 5553 5556 5558 5560 5563 5566 5568 5570 5572 5574 5576 5579 5580 5582 5584 5586 5587 5589 5590 5591
5506 5507 5507 5509 5511 5510 5510 5511 5512 5513 5515 5516 5518 5520 5522 5524 5526 5528 5530 5532 5534 5536 5538 5541 5543 5545 5548 5550 5552 5555 5557 5559 5561 5563 5565 5567 5569 5571 5573 5575 5576 5577 5578 5579
5501 5501 5502 5502 5503 5504 5505 5505 5506 5507 5508 5509 5511 5512 5514 5516 5518 5520 5522 5523 5525 5527 5529 5531 5533 5535 5538 5539 5542 5544 5546 5548 5550 5552 5554 5556 5558 5560 5562 5563 5564 5566 5567 5567
5497 5496 5496 5497 5498 5498 5499 5499 5500 5501 5502 5502 5504 5505 5507 5508 5510 5512 5513 5515 5517 5518 5520 5522 5524 5526 5528 5530 5531 5533 5535 5537 5539 5541 5543 5545 5546 5548 5550 5552 5553 5554 5555 5556
5492 5492 5492 5492 5492 5493 5493 5493 5494 5494 5495 5496 5497 5498 5500 5501 5503 5504 5505 5507 5508 5510 5511 5513 5514 5516 5518 5520 5522 5523 5525 5527 5529 5531 5532 5534 5536 5537 5539 5541 5542 5543 5544 5545
Wind_Speed
45 47 50 50 50 49 49 49 49 49 50 50 50 49 49 48 47 48 48 47 47 47 46 46 45 45 45 44 44 43 43 42 41 41 40 39 38 38 37 36 36 35 35 35
44 45 46 46 47 48 49 49 50 49 51 50 50 50 50 48 47 47 48 47 46 46 46 46 46 46 45 45 45 45 44 44 43 42 41 41 40 39 38 38 37 37 37 37
42 42 44 45 45 46 48 48 49 49 48 50 50 50 50 49 48 48 48 48 48 47 46 46 46 46 46 46 46 45 45 44 44 43 42 41 41 40 40 39 39 38 37 37
40 41 43 44 45 45 46 46 47 48 48 48 50 50 49 49 48 48 48 48 48 47 47 46 46 46 46 46 46 46 45 45 44 43 42 42 42 41 40 40 40 39 38 38
39 40 42 44 45 45 45 44 45 46 47 48 49 49 48 49 48 48 48 48 48 48 48 47 46 46 47 47 47 46 46 45 44 44 43 43 42 42 41 41 40 40 40 39
37 38 40 42 43 43 44 43 43 43 45 48 48 48 49 48 48 47 47 48 48 48 48 48 48 47 47 46 45 46 45 45 44 44 44 43 42 42 41 41 40 40 40 40
34 37 38 39 41 42 42 42 41 42 45 48 47 47 49 47 46 46 47 47 48 48 48 48 48 48 47 47 46 45 45 45 45 44 44 43 43 42 42 42 41 41 41 41
32 35 36 38 40 41 41 41 42 42 43 46 46 47 48 47 46 46 46 46 47 47 47 47 46 46 46 46 46 46 45 45 45 45 44 44 44 44 43 43 42 42 42 41
32 34 36 36 38 40 40 40 41 41 41 42 44 46 47 46 46 46 45 45 46 46 46 46 46 46 46 46 46 46 46 46 45 45 45 44 44 44 44 44 44 43 42 42
30 32 35 35 37 39 38 37 39 41 41 40 42 43 45 45 45 44 44 44 45 46 46 46 46 46 46 46 46 46 46 46 46 46 45 45 45 45 45 45 44 44 43 43
28 31 33 35 36 38 38 38 39 40 40 40 40 42 43 42 43 43 43 43 44 45 45 45 46 46 45 46 46 46 47 46 46 46 46 45 46 46 46 45 45 44 45 45
26 29 31 34 35 37 38 39 39 39 39 39 40 40 40 41 42 43 43 43 43 44 44 45 45 45 46 46 45 46 46 46 46 46 46 46 46 46 46 46 46 46 45 46
23 27 29 31 34 36 37 39 38 38 39 39 39 39 40 40 41 42 42 42 42 43 44 44 45 45 45 45 46 45 46 46 46 46 46 47 47 47 47 47 46 46 46 46
21 24 28 30 30 33 36 37 37 37 37 38 38 38 39 39 41 42 42 42 42 42 43 43 44 44 45 45 45 46 46 46 46 47 47 47 47 47 47 47 46 47 47 47
20 23 26 27 28 31 33 35 37 38 37 37 36 37 39 39 40 40 41 42 43 43 43 43 44 44 44 44 45 46 46 46 46 47 47 47 47 48 47 47 47 47 47 46
20 21 23 24 26 27 30 33 35 36 37 37 36 35 36 38 38 39 41 41 42 42 43 43 43 43 43 44 44 45 46 46 46 46 46 47 47 48 48 48 48 48 47 47
19 20 22 23 25 26 29 30 33 34 35 35 35 34 34 36 37 38 39 41 42 42 42 42 42 43 43 44 44 45 45 46 46 46 46 46 47 48 48 48 48 48 48 48
17 19 21 22 22 25 26 27 29 31 32 33 34 34 34 35 36 36 37 39 41 41 41 41 41 42 43 43 44 45 45 46 46 47 47 47 47 48 48 48 48 48 48 48
18 18 20 21 23 24 25 26 27 28 29 30 31 33 34 34 34 35 36 37 38 39 41 41 41 41 42 42 43 44 45 46 46 47 47 47 47 47 48 48 48 48 48 48
16 18 20 21 23 24 24 24 26 27 29 29 30 31 32 33 33 33 35 36 37 38 39 40 41 41 42 42 43 43 44 44 45 46 46 47 47 47 47 47 47 48 48 47
17 18 19 20 22 22 22 23 24 26 27 28 30 31 32 32 33 33 34 35 36 37 38 39 39 40 41 41 42 42 43 43 44 45 45 46 46 47 47 47 47 47 47 46
17 18 19 20 21 21 21 23 24 25 26 27 28 29 30 31 32 33 33 34 35 36 36 38 38 38 39 40 41 41 41 41 42 43 43 44 44 45 45 44 44 44 45 45
17 18 19 20 20 20 21 23 24 24 25 26 28 29 29 30 31 32 32 32 33 34 34 35 36 37 37 38 39 39 39 40 40 41 41 42 42 43 43 43 42 42 42 43
17 18 19 19 20 20 21 22 22 23 24 25 26 28 28 29 29 29 30 31 32 32 32 33 33 34 35 36 37 38 38 38 39 40 41 41 41 41 42 42 42 41 41 41
17 18 19 19 20 21 21 22 23 23 24 25 25 26 27 27 27 28 29 30 30 31 31 32 33 33 34 35 35 36 37 37 38 39 39 40 40 41 41 41 40 40 40 39
17 18 18 18 19 20 20 21 21 22 23 24 24 24 26 26 27 27 28 29 29 30 30 31 31 32 33 34 34 34 35 35 36 36 37 38 38 38 38 38 38 38 38 38
Wind_Direction
223 223 224 226 228 230 231 231 232 232 232 232 232 233 233 234 235 235 235 235 236 237 237 237 238 239 240 240 241 243 243 245 246 248 250 252 253 255 257 259 261 262 264 265
222 223 223 225 227 228 229 230 231 233 234 234 233 233 233 234 235 236 236 235 236 237 237 237 237 238 240 241 242 243 244 245 246 248 250 251 253 255 257 259 261 262 263 264
223 223 222 223 224 226 228 230 231 233 235 236 235 234 234 234 234 235 235 236 235 236 237 237 238 238 240 241 242 243 244 246 247 248 250 251 253 255 257 259 260 261 263 265
222 220 220 221 222 224 226 228 231 233 233 236 236 237 235 236 235 235 236 237 237 237 238 239 239 239 240 241 242 243 245 246 247 248 249 251 253 255 256 258 259 261 262 264
222 221 221 221 222 224 226 227 230 232 234 236 236 238 236 236 235 235 236 238 238 239 239 240 241 241 241 242 243 243 245 246 247 249 250 251 253 255 256 257 258 260 261 263
223 222 223 222 222 224 226 227 229 231 234 236 235 237 238 237 237 236 237 239 239 239 240 241 241 241 242 243 244 244 244 245 247 249 250 252 253 254 255 257 258 260 262 263
221 222 223 222 221 221 223 226 227 230 232 235 235 237 239 238 238 238 238 239 240 240 241 242 242 242 243 243 244 244 245 246 247 248 249 251 252 253 255 257 258 260 261 263
223 221 223 223 222 221 223 225 228 230 233 236 235 237 238 238 238 239 239 239 240 240 241 241 242 242 242 243 244 244 245 245 246 248 249 250 252 253 255 257 259 260 262 263
228 226 226 227 225 223 223 226 229 231 235 239 238 238 238 238 239 240 240 240 240 240 240 241 241 241 242 242 243 244 245 246 247 248 249 250 251 253 255 257 259 261 262 264
229 228 227 227 225 225 225 226 226 229 233 238 239 240 240 238 240 240 241 241 241 240 240 241 241 242 242 243 244 245 245 246 248 248 250 251 252 254 255 257 259 260 262 264
229 229 228 227 225 224 225 226 227 230 235 238 241 241 240 241 241 241 242 241 241 241 240 240 241 242 243 244 244 245 246 247 248 249 250 252 253 254 256 257 259 261 262 264
231 231 231 230 229 228 228 229 230 232 234 237 242 243 241 242 241 242 243 243 243 242 241 241 242 242 243 244 245 246 247 247 248 249 250 251 253 254 256 258 259 261 263 264
228 231 231 230 231 229 230 231 232 235 237 237 240 241 242 243 243 243 244 244 243 243 242 242 242 242 244 244 245 246 247 248 248 249 250 251 253 254 256 258 259 261 263 264
230 230 231 234 234 234 233 233 233 234 237 239 241 242 242 244 245 245 244 244 243 243 242 242 242 243 244 245 246 247 248 249 249 250 252 253 254 255 256 258 259 261 263 264
237 236 235 237 238 238 238 237 236 236 238 240 242 242 242 245 246 246 245 245 245 245 245 245 244 244 245 245 246 247 248 249 250 251 252 253 255 255 256 257 259 261 263 264
241 242 240 239 240 240 240 238 238 239 240 242 243 243 242 244 244 245 245 245 245 245 246 246 246 246 246 246 247 248 249 249 251 252 253 254 255 256 257 258 260 261 262 264
245 245 244 243 242 244 243 242 241 242 241 243 243 243 243 245 244 244 245 245 246 246 246 246 246 247 247 247 248 248 249 250 251 252 253 255 256 257 257 259 260 261 262 264
245 247 247 246 245 246 246 245 243 244 243 244 244 244 245 245 245 245 246 247 247 246 246 245 246 246 247 248 249 249 250 251 252 254 254 255 257 257 258 259 261 262 263 265
246 249 249 249 249 249 248 247 245 244 243 244 244 243 243 244 245 245 246 247 246 246 246 246 246 247 248 249 250 250 251 252 253 254 255 256 257 258 259 260 260 262 263 265
248 249 252 252 251 252 251 250 248 247 246 246 246 245 245 244 246 246 246 246 245 246 246 247 248 248 249 249 250 251 252 253 254 255 256 256 257 259 259 260 260 262 262 264
254 253 253 254 253 253 253 251 251 250 251 249 249 247 246 245 245 246 245 245 245 247 248 249 249 249 249 250 250 251 252 254 254 255 256 257 258 259 259 260 261 261 262 263
260 258 256 255 254 254 255 253 252 253 252 251 250 249 248 246 246 246 247 247 247 248 249 249 249 249 250 250 250 251 252 253 254 254 255 256 257 258 258 259 260 261 262 263
262 260 257 256 256 255 255 254 254 253 253 252 251 250 249 248 248 248 248 248 249 249 249 249 250 250 250 250 250 251 252 252 253 254 254 255 256 257 258 259 260 262 263 264
263 260 259 257 256 257 257 256 255 254 254 253 253 251 249 249 250 250 250 250 250 250 250 250 250 250 250 250 251 251 252 253 254 254 255 256 256 257 258 259 261 262 263 264
266 261 260 260 259 259 258 257 255 254 254 254 254 252 250 249 249 250 251 250 251 251 251 251 252 251 251 251 251 252 253 254 256 257 257 258 258 258 259 259 260 262 264 266
267 264 263 262 262 262 261 258 256 255 255 253 253 253 252 250 250 250 251 251 252 252 252 253 253 253 252 252 252 254 255 255 256 256 257 259 259 260 260 260 261 262 263 265